COSMOS 2251 DEB, 36614

Orbit data source: Space-Track

COSMOS 2251 DEB, 36614 is space debris in LEO originally from a launch on Wed, 16 Jun 1993 UTC launched from the Plesetsk Missile And Space Complex (PKMTR). The debris from Iridium 33, an American commercial communications satellite, has been tracked extensively since its accidental collision with the defunct Russian satellite Cosmos 2251 in 2009. This event, occurring at high speed in low Earth orbit (LEO), generated thousands of pieces of space debris, significantly increasing the risk of further collisions. The Iridium 33 debris cloud has impacted space traffic management and orbital debris mitigation strategies, making it a subject of ongoing study in space situational awareness.

Loading next visibility...
Identifier
36614, 1993-036BEC
Orbit
LEO
Country
Flag of CISCIS
Related business
Manufacturer
Unknown
Mission
Spacecraft
Bus & Motor
Unknown
Mass
Unknown
Launch date (UTC)
1993-06-16 (33 years ago)
Launch vehicle
Unknown
Launch site
Plesetsk Missile And Space Complex (PKMTR)
Object type
Payload
Rocket body
Debris
Shape & HBR
Unknown shape, 0.1 m
Radar Cross Section
Small (<0.1 m²)

Expand to show TLE details & history
Last TLE update: 17 hours ago

TLE from 17 hours ago
0 COSMOS 2251 DEB
1 36614U 93036BEC 26072.78083146  .00007748  00000-0  15591-2 0  9994
2 36614  74.0243   0.4365 0013008  46.1096 314.1142 14.61660704669426
Epoch: 2026-03-13T18:44Z
TLE epoch observation values (Epoch: 2026-03-13T18:44:23.838Z)
Latitude
-0.00003°
Longitude
-92.07428°
Altitude
684.065 km
Speed
7.518 km/s
True Right ascension
00h 01m 44s
True Declination
0° 00' 00"
Sunlit
Object was in daylight at epoch
Visualization orbit readout
Latitude
Unknown
Longitude
Unknown
Altitude
Unknown
Speed
Unknown
Apparent Right ascension
Unknown
Apparent Declination
Unknown
Sunlit
N/A
Visualization observer readout
Local Sidereal Time
16:04:34
Azimuth
Unknown
Elevation
Unknown
Doppler factor
Unknown
Orbital elements
Apogee altitude
694.602 km
Perigee altitude
676.225 km
Semi-major axis
7,063.551 km
Eccentricity
0.0013
Inclination
74.0243°
RAAN
0.4365°
Arg. of periapsis
46.1096°
True anomaly
314.00706°
Mean anomaly
314.1142°
Eccentric anomaly
314.06064°
Mean motion
3.65602 °/min
Orbital period
98.47 mins
BSTAR
0.0015591

Documentation

Showing up to 5 results
|